COSMOS 2061

Satellite information

Favourite Embed

Satellite Type and Status

PAYLOADIN ORBIT

Key statistics

Satellite COSMOS 2061 at a glance.

Uptime

13052

Days in orbit

Revolutions

≈ 13.7

Per day

Orbit

LEO

Low Earth Orbit

Inclination

82.9

Latest

Satellite identification and parameters

Extended collection of information and parameters for COSMOS 2061.

Object identification

Identified? True

Debris? False

Object name: COSMOS 2061

International designator: 1990-023A

Object number (NORAD): 20527

Object ID (CCSDS): 20527

Country: COMMONWEALTH OF INDEPENDENT STATES (CIS)

Current information (Y/N): Y

RCS size: LARGE

Orbital parameters

Period: 104.928 minutes

Inclination: 82.9363 deg

SMA: 7369.227 km

Apoapsis: 1014.939 km

Periapsis: 967.245 km

RAAN: 307.3157 deg

Eccentricy: 0.00323602

Argument of periapsis: 64.9791 deg

Mean anomaly: 47.2248 deg

Mean motion: 13.72365717 rev/day

Mean motion (dot): 0.00000106 rev/day2

B* drag term: 0.000099196196 1/REarth

Two-line elements (TLE)

Creation date: Dec. 12, 2025, 10:14 a.m.

Reference frame: TEME

Reference center: EARTH

Epoch: Dec. 12, 2025, 7:17 a.m. UTC

TLE line 0: 0 COSMOS 2061

TLE line 1: 1 20527U 90023A 25346.30391269 .00000106 00000-0 99196-4 0 9998

TLE line 2: 2 20527 82.9363 307.3157 0032360 64.9791 47.2248 13.72365717789176

Live tracking on map

Real-time ground track for satellite COSMOS 2061.

In-orbit conjunctions

A list of the most updated potential collisions computed for object COSMOS 2061.

Target Orbit TCA Probability of collision Miss distance Type
CZ-4C DEB SSO 2025-01-02 11:50:47 0.0002336494 528.0 (m) DEBRIS

Associated space launch

Navigation satellite providing location information for the Tsiklon-B navigation system

COSMOS 2061 was lifted into orbit during the mission ‘Kosmos-3M | Parus 68’, on board a Kosmos-3M space rocket.

The launch took place on March 20, 1990, 12:25 a.m. from 133/3 (133L).

For more information about the launch, click the button.

Launch to space Kosmos-3M | Parus 68
Kosmos-3M | Parus 68

Agency: N/A

Status: Launch Successful

Launch date: March 20, 1990, 12:25 a.m. UTC

Rocket: Kosmos-3M

Launch pad: 133/3 (133L)

Location: Plesetsk Cosmodrome, Russian Federation

...

Latest news about this satellite

There are no fresh news available about this satellite. Check back as we update our databases every day.


Newsletter sign-up

Weekly statistics, charts and insights to help you stay on top of the space industry.